Weather History for Miami, FL

Change the Weather History Date:

Tuesday, August 19, 2014

  Actual Average Record
Temperature  
Mean Temperature 88 °F 84 °F  
Max Temperature 94 °F 91 °F 96 °F (1909)
Min Temperature 81 °F 77 °F 70 °F (1947)
Degree Days  
Heating Degree Days 0 0  
Month to date heating degree days 0 0  
Since 1 June heating degree days 0 0  
Since 1 July heating degree days 0 0  
Cooling Degree Days 23 19  
Month to date cooling degree days 372 369  
Year to date cooling degree days 3041 2849  
Since 1 June cooling degree days 1467 1493  
Growing Degree Days 37 (Base 50)    
Moisture  
Dew Point 74 °F    
Average Humidity 67    
Maximum Humidity 85    
Minimum Humidity 49    
Precipitation  
Precipitation T in 0.29 in 3.07 in (1976)
Month to date precipitation 5.96 5.19  
Year to date precipitation 46.02 36.71  
Snow  
Snow 0.00 in - - ()
Month to date snowfall 0.0  
Since 1 June snowfall 0.0  
Since 1 July snowfall 0.0  
Snow Depth 0.00 in    
Sea Level Pressure  
Sea Level Pressure 30.02 in    
Wind  
Wind Speed 4 mph (SE)    
Max Wind Speed 16 mph    
Max Gust Speed 20 mph    
Visibility 10 miles    
Events Rain , Thunderstorm    
T = Trace of Precipitation, MM = Missing Value Source: NWS Daily Summary

Daily Weather History Graph

Daily Weather History Graph

Search for Another Location

Airport:

Trip Planner

Search our weather history database for the weather conditions in past years. The results will help you decide how hot, cold, wet, or windy it might be!

Date:

Astronomy

Aug. 19, 2014 Rise Set
Actual Time 6:56 AM EDT 7:53 PM EDT
Civil Twilight 6:32 AM EDT 8:17 PM EDT
Nautical Twilight 6:03 AM EDT 8:45 PM EDT
Astronomical Twilight 5:35 AM EDT 9:14 PM EDT
Moon 1:56 AM EDT (8/19) 3:38 PM EDT (8/19)
Length of Visible Light 13h 44m
Length of Day
12h 57m
Waning Crescent, 29% of the Moon is Illuminated
Aug 19
Waning Crescent
Aug 25
New
Sep 2
First Quarter
Sep 8
Full
Sep 15
Last Quarter

Hourly Weather History & Observations

Time (EDT) Temp. Heat Index Dew Point Humidity Pressure Visibility Wind Dir Wind Speed Gust Speed Precip Events Conditions
12:53 AM 82.9 °F 89.4 °F 73.9 °F 74% 30.02 in 10.0 mi Calm Calm - N/A   Partly Cloudy
1:53 AM 82.9 °F 90.2 °F 75.0 °F 77% 30.01 in 9.0 mi SE 3.5 mph - N/A   Partly Cloudy
2:53 AM 82.0 °F 88.6 °F 75.0 °F 79% 30.00 in 9.0 mi Calm Calm - N/A   Partly Cloudy
3:53 AM 82.0 °F 88.6 °F 75.0 °F 79% 29.99 in 9.0 mi Calm Calm - N/A   Partly Cloudy
4:53 AM 82.0 °F 88.6 °F 75.0 °F 79% 29.99 in 9.0 mi Calm Calm - N/A   Partly Cloudy
5:53 AM 82.9 °F 90.8 °F 75.9 °F 79% 29.99 in 9.0 mi NW 3.5 mph - N/A   Partly Cloudy
6:53 AM 82.0 °F 89.4 °F 75.9 °F 82% 30.02 in 10.0 mi Calm Calm - N/A   Scattered Clouds
7:53 AM 82.9 °F 91.8 °F 77.0 °F 82% 30.03 in 10.0 mi Calm Calm - N/A   Mostly Cloudy
8:53 AM 84.9 °F 95.3 °F 77.0 °F 77% 30.05 in 10.0 mi East 5.8 mph - N/A   Mostly Cloudy
9:53 AM 88.0 °F 98.5 °F 75.9 °F 67% 30.05 in 10.0 mi ESE 3.5 mph - N/A   Mostly Cloudy
10:53 AM 89.1 °F 100.2 °F 75.9 °F 65% 30.06 in 10.0 mi SE 4.6 mph - N/A   Mostly Cloudy
11:53 AM 90.0 °F 99.0 °F 73.9 °F 59% 30.06 in 10.0 mi East 5.8 mph - N/A   Mostly Cloudy
12:53 PM 88.0 °F 96.5 °F 73.9 °F 63% 30.04 in 10.0 mi ESE 4.6 mph - 0.00 in Rain Light Rain
1:53 PM 84.0 °F 90.2 °F 73.0 °F 69% 30.04 in 10.0 mi SW 11.5 mph - 0.00 in Rain , Thunderstorm Light Thunderstorms and Rain
2:29 PM 82.9 °F 89.4 °F 73.9 °F 74% 30.02 in 10.0 mi SSW 3.5 mph - 0.00 in   Mostly Cloudy
2:53 PM 87.1 °F 95.4 °F 73.9 °F 65% 30.01 in 10.0 mi Calm Calm - 0.00 in   Mostly Cloudy
3:53 PM 93.9 °F 100.8 °F 71.1 °F 47% 29.99 in 10.0 mi Calm Calm - N/A   Mostly Cloudy
4:53 PM 91.0 °F 100.4 °F 73.9 °F 57% 29.98 in 10.0 mi ESE 10.4 mph - N/A   Scattered Clouds
5:53 PM 89.1 °F 98.0 °F 73.9 °F 61% 29.98 in 10.0 mi SE 10.4 mph - N/A   Scattered Clouds
6:53 PM 87.1 °F 94.5 °F 73.0 °F 63% 29.99 in 10.0 mi SE 8.1 mph - N/A   Scattered Clouds
7:53 PM 84.9 °F 91.4 °F 73.0 °F 67% 30.00 in 10.0 mi SE 6.9 mph - N/A   Mostly Cloudy
8:53 PM 84.9 °F 91.4 °F 73.0 °F 67% 30.02 in 10.0 mi SE 4.6 mph - N/A   Scattered Clouds
9:53 PM 84.0 °F 90.2 °F 73.0 °F 69% 30.03 in 10.0 mi ESE 4.6 mph - N/A   Scattered Clouds
10:53 PM 82.9 °F 89.4 °F 73.9 °F 74% 30.04 in 10.0 mi SE 3.5 mph - N/A   Clear
11:53 PM 84.0 °F 91.9 °F 75.0 °F 74% 30.04 in 10.0 mi SE 3.5 mph - N/A   Clear